K5BV Weather Reports


Display with metric or nautical units.
time (UTC)temp
F
wind
direction
speed
MPH
gust
MPH
rain 1hr
in
rain 24hr
in
rain mn
in
humidity
%
barometer
mb
20260504050242 72 0 0.0 0.0 0.00 0.00 0.00 76 1019.3
20260504045237 72 0 0.0 0.0 0.00 0.00 0.00 75 1019.5
20260504044238 72 0 0.0 0.0 0.00 0.00 0.00 74 1019.6
20260504043238 72 0 0.0 0.0 0.00 0.00 0.00 74 1019.5
20260504042238 72 0 0.0 0.0 0.00 0.00 0.00 74 1019.6
20260504041239 72 0 0.0 0.0 0.00 0.00 0.00 74 1019.6
20260504040237 72 0 0.0 0.0 0.00 0.00 0.00 71 1019.5
20260504035239 72 0 0.0 0.0 0.00 0.00 0.00 70 1019.5
20260504034237 72 0 0.0 0.0 0.00 0.00 0.00 72 1019.4
20260504033237 72 0 0.0 0.0 0.00 0.00 0.00 71 1019.4
20260504032237 72 0 0.0 0.0 0.00 0.00 0.00 71 1019.4
20260504031238 72 0 0.0 0.0 0.00 0.00 0.00 71 1019.3
20260504030238 72 0 0.0 0.0 0.00 0.00 0.00 70 1019.3
20260504025238 72 0 0.0 0.0 0.00 0.00 0.00 71 1019.5
20260504024237 72 0 0.0 0.0 0.00 0.00 0.00 70 1019.4
20260504023238 72 0 0.0 0.0 0.00 0.00 0.00 70 1019.4
20260504022238 73 0 0.0 0.0 0.00 0.00 0.00 70 1019.2
20260504021238 73 0 0.0 0.0 0.00 0.00 0.00 69 1019.0
20260504020237 73 0 0.0 0.0 0.00 0.00 0.00 70 1018.9
20260504015239 72 0 0.0 0.0 0.00 0.00 0.00 68 1018.9
20260504014244 73 0 0.0 0.0 0.00 0.00 0.00 70 1018.8
20260504012239 73 0 0.0 0.0 0.00 0.00 0.00 69 1018.8
20260504011239 73 0 0.0 0.0 0.00 0.00 0.00 68 1018.7
20260504010239 74 0 0.0 0.0 0.00 0.00 0.00 66 1018.8
20260504005239 75 0 0.0 0.0 0.00 0.00 0.00 66 1018.8
20260504004239 75 0 0.0 0.0 0.00 0.00 0.00 63 1018.8
20260504003239 76 0 0.0 0.0 0.00 0.00 0.00 62 1019.0
20260504002239 76 0 0.0 0.0 0.00 0.00 0.00 62 1019.0
20260504001238 76 0 0.0 0.0 0.00 0.00 0.00 61 1019.0
20260504000241 77 0 0.0 0.0 0.00 0.00 0.00 60 1019.1
20260503235239 77 0 0.0 0.0 0.00 0.00 0.00 60 1019.0
20260503234239 77 0 0.0 0.0 0.00 0.00 0.00 59 1018.9
20260503233238 77 0 0.0 0.0 0.00 0.00 0.00 60 1019.0
20260503232239 77 0 0.0 0.0 0.00 0.00 0.00 61 1019.3
20260503231239 77 0 0.0 0.0 0.00 0.00 0.00 60 1019.3
20260503230239 77 0 0.0 0.0 0.00 0.00 0.00 61 1019.3
20260503225239 77 0 0.0 0.0 0.00 0.00 0.00 61 1019.4
20260503224239 77 0 0.0 0.0 0.00 0.00 0.00 61 1019.5
20260503223239 78 0 0.0 0.0 0.00 0.00 0.00 59 1019.4
20260503222239 78 0 0.0 0.0 0.00 0.00 0.00 59 1019.4
20260503221238 78 0 0.0 0.0 0.00 0.00 0.00 60 1019.7
20260503220239 79 0 0.0 0.0 0.00 0.00 0.00 57 1019.9
20260503215239 80 0 0.0 0.0 0.00 0.00 0.00 58 1020.0
20260503214239 80 0 0.0 0.0 0.00 0.00 0.00 56 1020.2
20260503213239 81 0 0.0 0.0 0.00 0.00 0.00 55 1020.4
20260503212240 80 0 0.0 0.0 0.00 0.00 0.00 55 1020.6
20260503211239 80 0 0.0 0.0 0.00 0.00 0.00 55 1020.7
20260503210239 80 0 0.0 0.0 0.00 0.00 0.00 56 1020.8
20260503205239 80 0 0.0 0.0 0.00 0.00 0.00 54 1020.8
20260503204239 80 0 0.0 0.0 0.00 0.00 0.00 55 1020.9
20260503203239 80 0 0.0 0.0 0.00 0.00 0.00 55 1021.0
20260503202239 80 0 0.0 0.0 0.00 0.00 0.00 53 1021.2
20260503201239 80 0 0.0 0.0 0.00 0.00 0.00 53 1021.4
20260503200239 80 0 0.0 0.0 0.00 0.00 0.00 53 1021.6
20260503195239 80 0 0.0 0.0 0.00 0.00 0.00 55 1021.8
20260503194239 80 0 0.0 0.0 0.00 0.00 0.00 54 1021.9
20260503193238 80 0 0.0 0.0 0.00 0.00 0.00 53 1022.0
20260503192239 80 0 0.0 0.0 0.00 0.00 0.00 52 1022.1
20260503191239 79 0 0.0 0.0 0.00 0.00 0.00 51 1022.1
20260503190238 80 0 0.0 0.0 0.00 0.00 0.00 51 1022.3
20260503185239 79 0 0.0 0.0 0.00 0.00 0.00 51 1022.4
20260503184239 79 0 0.0 0.0 0.00 0.00 0.00 51 1022.6
20260503183239 79 0 0.0 0.0 0.00 0.00 0.00 50 1022.8
20260503182238 80 0 0.0 0.0 0.00 0.00 0.00 51 1022.9
20260503181238 79 0 0.0 0.0 0.00 0.00 0.00 53 1023.1
20260503180239 79 0 0.0 0.0 0.00 0.00 0.00 52 1023.2
20260503175239 79 0 0.0 0.0 0.00 0.00 0.00 51 1023.2
20260503174239 79 0 0.0 0.0 0.00 0.00 0.00 53 1023.3
20260503173238 78 0 0.0 0.0 0.00 0.00 0.00 56 1023.3
20260503172238 78 0 0.0 0.0 0.00 0.00 0.00 58 1023.5
20260503171238 78 0 0.0 0.0 0.00 0.00 0.00 56 1023.6
20260503170243 78 0 0.0 0.0 0.00 0.00 0.00 60 1023.7
20260503150239 74 0 0.0 0.0 0.00 0.00 0.00 68 1023.7
20260503140238 68 0 0.0 0.0 0.00 0.00 0.00 88 1023.6
20260503131240 65 0 0.0 0.0 0.00 0.00 0.00 92 1023.0
20260503130243 64 0 0.0 0.0 0.00 0.00 0.00 92 1022.6
20260503110239 63 0 0.0 0.0 0.00 0.00 0.00 91 1021.8
20260503100240 63 0 0.0 0.0 0.00 0.00 0.00 92 1021.9
20260503090239 63 0 0.0 0.0 0.00 0.00 0.00 92 1021.9
20260503081239 64 0 0.0 0.0 0.00 0.00 0.00 87 1022.1
20260503080239 65 0 0.0 0.0 0.00 0.00 0.00 85 1022.1
20260503072240 64 0 0.0 0.0 0.00 0.00 0.00 83 1022.2
20260503071240 64 0 0.0 0.0 0.00 0.00 0.00 82 1022.4
20260503070239 65 0 0.0 0.0 0.00 0.00 0.00 81 1022.4
20260503060239 66 0 0.0 0.0 0.00 0.00 0.00 80 1022.4
20260503054239 66 0 0.0 0.0 0.00 0.00 0.00 80 1022.3
20260503053240 66 0 0.0 0.0 0.00 0.00 0.00 80 1022.2
20260503052240 65 0 0.0 0.0 0.00 0.00 0.00 79 1022.2